GW5385 Weather Reports


time (UTC)temp
F
wind
direction
speed
knots
gust
knots
rain 1hr
in
rain 24hr
in
rain mn
in
humidity
%
barometer
mb
20260503224526 74 331 4.3 11.3 0.00 0.00 0.00 21 1010.6
20260503223021 74 330 3.5 11.3 0.00 0.00 0.00 21 1010.6
20260503221518 74 304 6.1 12.2 0.00 0.00 0.00 21 1010.9
20260503220021 74 314 6.1 12.2 0.00 0.00 0.00 21 1011.1
20260503214523 74 303 6.1 12.2 0.00 0.00 0.00 21 1011.2
20260503213014 73 347 3.5 10.4 0.00 0.00 0.00 22 1011.3
20260503211511 73 302 3.5 11.3 0.00 0.00 0.00 21 1011.7
20260503210020 73 25 3.5 11.3 0.00 0.00 0.00 22 1011.9
20260503204509 73 294 4.3 11.3 0.00 0.00 0.00 23 1012.0
20260503203004 73 314 5.2 9.6 0.00 0.00 0.00 23 1012.0
20260503201501 73 44 6.1 13.0 0.00 0.00 0.00 22 1012.4
20260503200033 72 319 8.7 13.9 0.00 0.00 0.00 22 1012.7
20260503194527 71 256 2.6 9.6 0.00 0.00 0.00 22 1012.8
20260503193021 71 353 4.3 16.5 0.00 0.00 0.00 24 1013.1
20260503191520 71 340 6.1 14.8 0.00 0.00 0.00 23 1013.3
20260503190018 70 309 7.0 11.3 0.00 0.00 0.00 23 1013.4
20260503184524 69 330 3.5 9.6 0.00 0.00 0.00 24 1013.5
20260503183014 70 327 6.1 12.2 0.00 0.00 0.00 22 1013.6
20260503181511 69 290 4.3 8.7 0.00 0.00 0.00 24 1013.9
20260503180010 69 306 2.6 10.4 0.00 0.00 0.00 25 1014.1
20260503174507 69 343 4.3 9.6 0.00 0.00 0.00 24 1014.4
20260503173004 69 335 5.2 14.8 0.00 0.00 0.00 25 1014.5
20260503171502 69 308 2.6 11.3 0.00 0.00 0.00 24 1014.5
20260503081557 36 335 0.0 0.9 0.00 0.00 0.00 78 1017.4
20260503071543 36 298 0.0 0.0 0.00 0.00 0.00 76 1017.6
20260503054531 42 77 0.0 0.9 0.00 0.00 0.00 68 1017.8
20260503053019 43 77 0.0 2.6 0.00 0.00 0.00 67 1017.8
20260503051513 44 303 0.0 0.9 0.00 0.00 0.00 68 1017.8
20260503050011 45 303 0.0 0.0 0.00 0.00 0.00 66 1017.9
20260503044512 47 303 0.9 1.7 0.00 0.00 0.00 61 1018.1
20260503043011 51 238 1.7 3.5 0.00 0.00 0.00 58 1018.1
20260503041506 53 169 0.0 0.9 0.00 0.00 0.00 57 1018.1
20260503040008 53 349 0.0 1.7 0.00 0.00 0.00 56 1018.3
20260503034537 53 341 0.0 1.7 0.00 0.00 0.00 51 1018.2
20260503033034 54 293 0.0 0.0 0.00 0.00 0.00 50 1018.0
20260503031536 54 293 0.0 1.7 0.00 0.00 0.00 49 1017.9
20260503030034 55 289 0.9 0.9 0.00 0.00 0.00 48 1017.7
20260503024531 55 284 0.0 0.9 0.00 0.00 0.00 47 1017.5
20260503023034 57 37 0.0 0.0 0.00 0.00 0.00 44 1017.4
20260503021529 57 40 0.0 0.0 0.00 0.00 0.00 43 1017.4
20260503020029 59 40 0.0 0.0 0.00 0.00 0.00 41 1017.4
20260503014528 61 40 0.9 1.7 0.00 0.00 0.00 39 1017.4
20260503013035 63 13 3.5 6.1 0.00 0.00 0.00 39 1017.4
20260503011529 64 35 2.6 7.8 0.00 0.00 0.00 37 1017.5
20260503010024 64 84 2.6 5.2 0.00 0.00 0.00 38 1017.5
20260503004523 64 360 0.0 0.0 0.00 0.00 0.00 37 1017.8
20260503003023 64 360 0.9 2.6 0.00 0.00 0.00 37 1018.0
20260503001520 64 46 0.0 2.6 0.00 0.00 0.00 38 1018.1
20260503000020 64 11 0.9 5.2 0.00 0.00 0.00 38 1018.2
20260502234519 64 44 2.6 7.0 0.00 0.00 0.00 37 1018.3
20260502233019 66 70 0.9 6.1 0.00 0.00 0.00 35 1018.3
20260502231612 67 289 0.9 4.3 0.00 0.00 0.00 35 1018.5
20260502230047 66 119 0.9 5.2 0.00 0.00 0.00 35 1018.7